Zurück zum Katalog

SL-14 R/B

AktivPO
NORAD 18215·ROCKET BODY·🇷🇺 Russia

Gestartet Jul 16, 1987 von Plesetsk Cosmodrome

Loading…

Nächste Überflüge (nächste 24 Stunden)

TLE

AktuellSource: Space-Track

Epoche: Sep 14, 2026, 05:27 UTC

1 18215U 87062B   26257.22749139  .00000355  00000-0  37952-4 0  9992
2 18215  82.5153 355.8095 0020292 145.8735 240.1303 14.85769689 95501

Verfolge SL-14 R/B in Echtzeit mit AllMySat

Download on the App Store